Back to catalog

STARLINK-30852

AliveCommunicationsVLEO
NORAD 58373·PAYLOAD·🇺🇸 United States

Launched Nov 18, 2023 from Cape Canaveral Space Force Station

Loading…

Next Passes (next 24 hours)

TLE

FreshSource: CelesTrak SupGP

Epoch: Sep 15, 2026, 02:48 UTC

1 58373C 23177Y   26258.11715278  .00028101  00000+0  10182-2 0  2584
2 58373  43.0038   0.5975 0001636 275.0388 317.3799 15.27553216    18

Track STARLINK-30852 in real time with AllMySat

Download on the App Store